Hourly Weather Roundup
Issued by NWS Central Illinois

Home | Current Version | Previous Version | Text Only | Print | Product List | Glossary On
Versions: 1 2 3 4 5 6 7 8 9 10 11 12 13 14 15 16 17 18 19 20 21 22 23 24 25 26 27 28 29 30 31 32 33 34 35 36 37 38 39 40 41 42 43 44 45 46 47 48 49 50
834
NZUS43 KILX 230710
HWRILX

AREA WEATHER ROUNDUP
NATIONAL WEATHER SERVICE, LINCOLN IL
200 AM CDT TUE AUG 23 2016


CITY           SKY/WX    TMP DP  RH WIND       PRES   REMARKS
BLOOMINGTON    CLEAR     61  58  90 S6        30.20S
CHAMPAIGN      CLEAR     60  57  89 SE5       30.20F
DANVILLE       CLEAR     56  56  99 CALM      30.19S
DECATUR        CLEAR     64  58  80 S5        30.19F
EFFINGHAM      PTCLDY    60  60 100 CALM      30.21F
FLORA          CLEAR     61  60  97 CALM      30.21S
GALESBURG      CLEAR     62  58  87 SE6       30.15S
JACKSONVILLE   CLEAR     66  59  77 S6        30.15F
LACON          CLEAR     63  57  81 S5        30.17R
LAWRENCEVILLE  CLEAR     62  61  96 E3        30.21F
LITCHFIELD     CLEAR     61  56  85 SE3       30.18F
$$


CITY           SKY/WX    TMP DP  RH WIND       PRES   REMARKS
LINCOLN        CLEAR     62  60  94 CALM      30.18S
MACOMB         CLEAR     60  58  93 SE6       30.17S
MATTOON        CLEAR     61  57  87 S5        30.19F
MT CARMEL AP   CLEAR     60  58  92 CALM      30.21S
OLNEY-NOBLE AP CLEAR     59  59 100 CALM      30.21S
PARIS          CLEAR     58  58  99 CALM      30.22S
PEORIA         CLEAR     64  59  83 S6        30.17S
PONTIAC        CLEAR     60  59  99 SE3       30.19F
RANTOUL        CLEAR     62  59  91 CALM      30.20F
ROBINSON       FOG       56  56 100 CALM      30.22S VSB 1/4
SPRINGFIELD    CLEAR     65  60  84 S6        30.17F
TAYLORVILLE    CLEAR     63  60  91 SE6       30.19S
$$

...REGIONAL REPORTS...


CITY           SKY/WX    TMP DP  RH WIND       PRES   REMARKS
CHICAGO O`HARE CLEAR     63  57  81 S7        30.18S
KANKAKEE       CLEAR     60  58  93 CALM      30.20S
MOLINE         CLEAR     64  58  80 S7        30.13S
MOUNT STERLING CLEAR     60  58  93 S5        30.14F
MOUNT VERNON   PTCLDY    57  52  82 CALM      30.20S
PITTSFIELD     CLEAR     62  59  91 S3        30.16S
QUINCY         CLEAR     63  60  90 SE6       30.13F
ROCKFORD       CLEAR     61  56  83 S5        30.17F
$$


CITY           SKY/WX    TMP DP  RH WIND       PRES   REMARKS
BURLINGTON     CLEAR     64  60  87 S6        30.12F
CEDAR RAPIDS   CLEAR     63  61  93 S6        30.10S
DES MOINES     PTCLDY    67  60  78 S8        30.05S
KIRKSVILLE     CLEAR     60  57  89 S7        30.12S
OTTUMWA        CLEAR     64  58  80 S8        30.09F
ST LOUIS       CLEAR     71  60  68 S7        30.16F
$$


CITY           SKY/WX    TMP DP  RH WIND       PRES   REMARKS
TERRE HAUTE    PTCLDY    59  56  89 CALM      30.22S
EVANSVILLE     PTCLDY    63  61  93 CALM      30.21S FOG
INDIANAPOLIS   CLEAR     65  58  78 SE3       30.23S
LAFAYETTE      CLEAR     58  58 100 CALM      30.21S
MADISON        CLEAR     67  57  70 S8        30.12F
MILWAUKEE      CLEAR     66  56  70 SW7       30.15S
$$






USA.gov is the U.S. government's official web portal to all federal, state and local government web resources and services.